This is the latest recevied weather packets stored in our database for station/object KD5FHA. If no packets are shown the sender has not sent any weather packets the latest 10 day(s).
| Time | Temp. | Humidity | Pressure | Rain* | Wind** | Luminosity | Snow |
|---|---|---|---|---|---|---|---|
| 1777646819 | 15° C | 80% | 1016.5 hPa | 0 mm | - | 97 W/m² | - |
| 1777646514 | 14.44° C | 81% | 1017 hPa | 0 mm | - | 165 W/m² | - |
| 1777646210 | 14.44° C | 82% | 1017.2 hPa | 0 mm | - | 218 W/m² | - |
| 1777645908 | 13.89° C | 84% | 1017.2 hPa | 0 mm | - | 140 W/m² | - |
| 1777645605 | 13.89° C | 86% | 1017.3 hPa | 0 mm | - | 84 W/m² | - |
| 1777645301 | 13.89° C | 87% | 1017.4 hPa | 0 mm | - | 50 W/m² | - |
| 1777644997 | 13.89° C | 87% | 1017.5 hPa | 0 mm | - | 50 W/m² | - |
| 1777644695 | 13.89° C | 88% | 1017.7 hPa | 0 mm | - | 46 W/m² | - |
| 1777644390 | 13.89° C | 88% | 1017.5 hPa | 0 mm | - | 50 W/m² | - |
| 1777644087 | 13.89° C | 88% | 1017.4 hPa | 0 mm | - | 47 W/m² | - |
| 1777643784 | 13.89° C | 88% | 1017.5 hPa | 0 mm | - | 38 W/m² | - |
| 1777643481 | 13.89° C | 87% | 1017.4 hPa | 0 mm | - | 36 W/m² | - |
| 1777643177 | 13.89° C | 87% | 1017.1 hPa | 0 mm | - | 42 W/m² | - |
| 1777642874 | 13.89° C | 87% | 1017.1 hPa | 0 mm | - | 34 W/m² | - |
| 1777642571 | 13.89° C | 87% | 1016.9 hPa | 0.51 mm | - | 28 W/m² | - |
| 1777642268 | 14.44° C | 86% | 1016.9 hPa | 0.51 mm | - | 27 W/m² | - |
| 1777641965 | 14.44° C | 85% | 1016.6 hPa | 0 mm | - | 32 W/m² | - |
| 1777641661 | 14.44° C | 84% | 1016.7 hPa | 0 mm | - | 32 W/m² | - |
| 1777641355 | 14.44° C | 83% | 1016.6 hPa | 0 mm | - | 46 W/m² | - |
| 1777641051 | 14.44° C | 84% | 1016.7 hPa | 0 mm | - | 33 W/m² | - |
| 1777640747 | 14.44° C | 85% | 1016.8 hPa | 0 mm | - | 30 W/m² | - |
| 1777640444 | 14.44° C | 85% | 1016.9 hPa | 0 mm | - | 28 W/m² | - |
| 1777640141 | 14.44° C | 85% | 1017.3 hPa | 0 mm | - | 30 W/m² | - |
| 1777639838 | 14.44° C | 85% | 1017.3 hPa | 0 mm | - | 17 W/m² | - |
| 1777639536 | 14.44° C | 85% | 1017.3 hPa | 0 mm | - | 18 W/m² | - |
* Rain latest hour (hover to see other rain measurements)
** Current wind speed in m/s (hover to see current wind gust speed)